STARLINK-36145 (66983 NORAD) Tracking and Keplerian Element Data

This shows tracking and keplerian element data for the satellite.

Feedback or suggestion? Click here.




ElementValue
Catalog66983
NameSTARLINK-36145
Epoch Orbit303
Epoch Day354.25003472
Epoch Year2025
RAAN121.0418
Inclination43.0017
Eccentricity0.0001636
Argument of Perigee270.0409
Mean Anonmoly143.811
Mean Motion15.80826667
Decay Rate-0.01595152
L11 66983U 25288AA 25354.25003472 -.01595152 00000+0 -91575-2 0 9997
L22 66983 43.0017 121.0418 0001636 270.0409 143.8110 15.80826667 3037



Live tracking and technical data element details for STARLINK-36145 (NORAD 66983). STARLINK-36145 can be tracked NOW for your location showing map with azimuth and elevation plus other details from your city location.







IsCatalogInMostPopularTable: catalog: 66983, numindb: 36
Update: records affected: 1



GetName: 66983 STARLINK-36145

Hit Count: updated at: Tue, 17 Feb 2026 12:19:33 GMT